Mobile, AL

7:03 PM CDT on August 25, 2016 (GMT -0500)
Mobile Regional

Weather History for KMOB - February, 2013

Change the Weather History Date:

Sunday, February 24, 2013

  Actual Average Record
Temperature  
Mean Temperature 59 °F 56 °F  
Max Temperature 70 °F 66 °F 80 °F (1944)
Min Temperature 47 °F 45 °F 19 °F (1989)
Degree Days  
Heating Degree Days 6 10  
Month to date heating degree days 227 276  
Since 1 July heating degree days 1138 1397  
Cooling Degree Days 0 0  
Month to date cooling degree days 1 0  
Year to date cooling degree days 27 7  
Growing Degree Days 8 (Base 50)    
Moisture  
Dew Point 50 °F    
Average Humidity 73    
Maximum Humidity 93    
Minimum Humidity 53    
Precipitation  
Precipitation 0.00 in 0.19 in 2.05 in (1961)
Month to date precipitation 6.88 4.20  
Year to date precipitation 9.75 9.85  
Snow  
Snow 0.00 in 0.00 in - ()
Month to date snowfall 0.1  
Since 1 July snowfall 0.1  
Snow Depth -    
Sea Level Pressure  
Sea Level Pressure 29.93 in    
Wind  
Wind Speed 6 mph (ENE)    
Max Wind Speed 14 mph    
Max Gust Speed 15 mph    
Visibility 8 miles    
Events Fog , Rain , Thunderstorm    
T = Trace of Precipitation, MM = Missing Value Source: NWS Daily Summary

Daily Weather History Graph

Daily Weather History Graph

Search for Another Location

Airport or City:

Trip Planner

Search our weather history database for the weather conditions in past years. The results will help you decide how hot, cold, wet, or windy it might be!

Date:

Astronomy

Feb. 24, 2013 Rise Set
Actual Time 6:24 AM CST 5:48 PM CST
Civil Twilight 6:00 AM CST 6:12 PM CST
Nautical Twilight 5:32 AM CST 6:40 PM CST
Astronomical Twilight 5:04 AM CST 7:08 PM CST
Moon 4:58 PM CST (2/24) 5:19 AM CST (2/24)
Length of Visible Light 12h 12m
Length of Day
11h 23m
Waxing Gibbous, 99% of the Moon is Illuminated
Feb 24
Waxing Gibbous
Feb 25
Full
Mar 4
Last Quarter
Mar 11
New
Mar 19
First Quarter

Hourly Weather History & Observations

Time (CST) Temp. Windchill Dew Point Humidity Pressure Visibility Wind Dir Wind Speed Gust Speed Precip Events Conditions
12:56 AM 53.1 °F - 50.0 °F 89% 29.96 in 10.0 mi NE 4.6 mph - N/A   Overcast
1:03 AM 53.6 °F - 50.0 °F 88% 29.96 in 10.0 mi NE 4.6 mph - N/A   Overcast
1:53 AM 51.8 °F - 48.2 °F 88% 29.95 in 10.0 mi NNE 4.6 mph - N/A   Scattered Clouds
1:56 AM 51.8 °F - 48.2 °F 88% 29.95 in 10.0 mi NNE 3.5 mph - N/A   Partly Cloudy
2:56 AM 50.0 °F - 48.0 °F 93% 29.95 in 10.0 mi NNE 4.6 mph - N/A   Clear
3:56 AM 48.9 °F - 46.9 °F 93% 29.94 in 8.0 mi NNE 5.8 mph - N/A   Clear
4:56 AM 48.0 °F - 46.0 °F 93% 29.96 in 7.0 mi NNE 6.9 mph - N/A   Clear
5:56 AM 46.9 °F - 45.0 °F 93% 29.97 in 7.0 mi North 9.2 mph - N/A Fog Patches of Fog
6:07 AM 46.4 °F 42.9 °F 44.6 °F 93% 29.97 in 7.0 mi NNE 6.9 mph - N/A   Mostly Cloudy
6:37 AM 46.4 °F 41.1 °F 44.6 °F 93% 29.97 in 1.0 mi NNE 11.5 mph - N/A   Overcast
6:48 AM 46.4 °F 41.5 °F 44.6 °F 93% 29.97 in 0.5 mi NNE 10.4 mph - N/A Fog Fog
6:56 AM 46.9 °F - 45.0 °F 93% 29.98 in 0.5 mi NNE 8.1 mph - N/A Fog Fog
7:56 AM 48.9 °F - 46.9 °F 93% 29.99 in 0.8 mi ENE 6.9 mph - N/A   Overcast
8:14 AM 48.2 °F - 48.2 °F 100% 29.99 in 1.0 mi ENE 6.9 mph - N/A   Overcast
8:26 AM 50.0 °F - 48.2 °F 94% 29.99 in 2.0 mi NE 6.9 mph - N/A   Overcast
8:36 AM 50.0 °F - 48.2 °F 94% 29.99 in 3.0 mi NE 10.4 mph - N/A   Overcast
8:56 AM 52.0 °F - 48.9 °F 89% 30.00 in 6.0 mi NE 8.1 mph - N/A   Mostly Cloudy
9:20 AM 55.4 °F - 50.0 °F 82% 30.00 in 10.0 mi NE 10.4 mph - N/A   Scattered Clouds
9:56 AM 57.9 °F - 50.0 °F 75% 30.01 in 10.0 mi East 8.1 mph - N/A   Scattered Clouds
10:56 AM 61.0 °F - 50.0 °F 67% 29.99 in 10.0 mi ENE 4.6 mph - N/A   Partly Cloudy
11:56 AM 64.0 °F - 51.1 °F 63% 29.97 in 10.0 mi East 4.6 mph - N/A   Partly Cloudy
12:56 PM 66.9 °F - 52.0 °F 59% 29.95 in 10.0 mi ESE 5.8 mph - N/A   Mostly Cloudy
1:56 PM 69.1 °F - 52.0 °F 54% 29.93 in 10.0 mi East 4.6 mph - N/A   Clear
2:56 PM 68.0 °F - 51.1 °F 55% 29.92 in 10.0 mi East 3.5 mph - N/A   Overcast
3:56 PM 68.0 °F - 51.1 °F 55% 29.90 in 10.0 mi ENE 4.6 mph - N/A   Mostly Cloudy
4:56 PM 68.0 °F - 51.1 °F 55% 29.89 in 10.0 mi ENE 3.5 mph - N/A   Overcast
5:56 PM 64.9 °F - 54.0 °F 68% 29.89 in 10.0 mi ESE 4.6 mph - N/A   Overcast
6:56 PM 64.0 °F - 53.1 °F 67% 29.89 in 10.0 mi ESE 6.9 mph - N/A   Overcast
7:56 PM 64.0 °F - 53.1 °F 67% 29.88 in 10.0 mi East 9.2 mph - N/A   Overcast
8:56 PM 63.0 °F - 53.1 °F 70% 29.91 in 10.0 mi SSE 5.8 mph - N/A   Overcast
9:09 PM 62.6 °F - 55.4 °F 77% 29.90 in 10.0 mi ESE 4.6 mph - 0.01 in Rain Light Rain
9:26 PM 60.8 °F - 55.4 °F 82% 29.90 in 10.0 mi East 8.1 mph - 0.03 in Rain , Thunderstorm Thunderstorms and Rain
9:56 PM 59.0 °F - 55.0 °F 87% 29.82 in 5.0 mi ENE 16.1 mph 21.9 mph 0.12 in Rain , Thunderstorm Heavy Thunderstorms and Rain
10:56 PM 59.0 °F - 55.0 °F 87% 29.84 in 8.0 mi East 15.0 mph - 0.10 in Rain , Thunderstorm Thunderstorms and Rain
11:03 PM 59.0 °F - 55.4 °F 88% 29.85 in 9.0 mi ESE 13.8 mph - 0.01 in Rain Rain
11:13 PM 57.2 °F - 55.4 °F 94% 29.86 in 9.0 mi ESE 10.4 mph - 0.03 in Rain , Thunderstorm Thunderstorms and Rain
11:56 PM 57.9 °F - 55.0 °F 90% 29.85 in 5.0 mi East 11.5 mph - 0.11 in Rain , Thunderstorm Heavy Rain